DW5852 Weather Reports


Display with metric or nautical units.
time (UTC)temp
F
wind
direction
speed
MPH
gust
MPH
rain 1hr
in
rain 24hr
in
rain mn
in
humidity
%
barometer
mb
20260502170213 50 74 0.0 0.0 0.00 0.56 0.00 49 1020.4
20260502164210 49 356 0.0 0.0 0.00 0.56 0.00 58 1020.1
20260502163710 49 74 0.0 0.0 0.00 0.56 0.00 58 1020.0
20260502163210 49 73 0.0 0.0 0.00 0.56 0.00 56 1019.9
20260502162713 48 13 0.0 0.0 0.00 0.56 0.00 53 1019.9
20260502162213 48 47 0.0 0.0 0.00 0.56 0.00 54 1019.8
20260502161713 48 136 0.0 0.0 0.00 0.56 0.00 61 1019.8
20260502161213 47 112 0.0 0.0 0.00 0.56 0.00 60 1019.8
20260502160713 47 191 0.0 1.0 0.00 0.56 0.00 62 1019.7
20260502160210 46 55 0.0 0.0 0.00 0.56 0.00 65 1019.7
20260502152210 44 44 0.0 0.0 0.00 0.56 0.00 76 1019.5
20260502151710 44 332 0.0 1.0 0.00 0.56 0.00 77 1019.5
20260502151213 44 29 0.0 0.0 0.00 0.56 0.00 80 1019.6
20260502150713 43 115 0.0 0.0 0.00 0.56 0.00 81 1019.6
20260502150213 42 63 0.0 2.0 0.00 0.56 0.00 80 1019.6
20260502130709 37 79 0.0 0.0 0.00 0.56 0.00 89 1018.8
20260502130209 36 33 0.0 0.0 0.00 0.56 0.00 89 1018.8
20260502123709 34 250 0.0 0.0 0.00 0.56 0.00 91 1018.5
20260502123212 34 250 0.0 0.0 0.00 0.56 0.00 92 1018.5
20260502122712 33 247 0.0 0.0 0.00 0.56 0.00 93 1018.5
20260502122212 33 247 0.0 0.0 0.00 0.56 0.00 93 1018.6
20260502121710 33 247 0.0 0.0 0.00 0.56 0.00 93 1018.6
20260502121209 33 248 0.0 0.0 0.00 0.56 0.00 93 1018.6
20260502120710 33 248 0.0 0.0 0.00 0.56 0.00 93 1018.6
20260502120212 33 247 0.0 0.0 0.00 0.56 0.00 93 1018.5
20260502115710 33 248 0.0 0.0 0.00 0.56 0.00 93 1018.6
20260502115210 33 248 0.0 0.0 0.00 0.56 0.00 93 1018.6
20260502114713 33 248 0.0 0.0 0.00 0.56 0.00 92 1018.6
20260502114209 34 248 0.0 0.0 0.00 0.56 0.00 92 1018.6
20260502113710 34 248 0.0 0.0 0.00 0.56 0.00 91 1018.7
20260502113213 34 248 0.0 0.0 0.00 0.56 0.00 92 1018.7
20260502112709 34 248 0.0 0.0 0.00 0.56 0.00 93 1018.7
20260502112209 34 248 0.0 0.0 0.00 0.56 0.00 93 1018.8
20260502111712 33 248 0.0 0.0 0.00 0.56 0.00 93 1018.9
20260502111213 33 248 0.0 0.0 0.00 0.56 0.00 93 1018.9
20260502110709 33 248 0.0 0.0 0.00 0.56 0.00 92 1018.9
20260502110210 33 248 0.0 0.0 0.00 0.56 0.00 92 1018.9
20260502105713 33 247 0.0 0.0 0.00 0.56 0.00 92 1019.0
20260502105212 34 248 0.0 0.0 0.00 0.56 0.00 92 1018.9
20260502104713 34 248 0.0 0.0 0.00 0.56 0.00 93 1018.9
20260502104212 33 248 0.0 0.0 0.00 0.56 0.00 93 1019.1
20260502103713 33 248 0.0 0.0 0.00 0.56 0.00 93 1019.0
20260502103212 33 248 0.0 0.0 0.00 0.56 0.00 93 1019.0
20260502102713 34 248 0.0 0.0 0.00 0.56 0.00 93 1018.9
20260502102212 34 248 0.0 0.0 0.00 0.56 0.00 93 1018.9
20260502101709 34 247 0.0 0.0 0.00 0.56 0.00 93 1018.9
20260502101209 34 247 0.0 0.0 0.00 0.56 0.00 93 1018.9
20260502100712 34 248 0.0 0.0 0.00 0.56 0.00 93 1018.8
20260502100212 34 248 0.0 0.0 0.00 0.56 0.00 93 1018.8
20260502091212 35 247 0.0 0.0 0.00 0.56 0.00 95 1018.8
20260502090710 35 248 0.0 0.0 0.00 0.56 0.00 95 1019.0
20260502090209 35 248 0.0 0.0 0.00 0.56 0.00 95 1018.8
20260502071212 35 167 0.0 0.0 0.00 0.56 0.00 94 1019.3
20260502070712 35 239 0.0 0.0 0.00 0.56 0.00 94 1019.3
20260502070212 35 172 0.0 0.0 0.00 0.56 0.00 94 1019.5
20260502065712 35 163 0.0 4.0 0.00 0.56 0.00 95 1019.4
20260502065209 35 205 0.0 6.0 0.00 0.56 0.00 95 1019.4
20260502064712 35 194 5.0 5.0 0.00 0.57 0.00 95 1019.5
20260502064212 35 181 0.0 3.0 0.00 0.57 0.00 95 1019.4
20260502063712 35 191 0.0 5.0 0.00 0.57 0.00 95 1019.4
20260502063212 35 190 0.0 2.0 0.00 0.57 0.00 95 1019.4
20260502062709 35 194 0.0 5.0 0.00 0.57 0.00 95 1019.4
20260502062212 35 228 1.0 6.0 0.00 0.57 0.00 95 1019.3
20260502061712 34 200 0.0 3.0 0.00 0.58 0.00 95 1019.4
20260502061209 34 174 0.0 1.0 0.00 0.58 0.00 95 1019.4
20260502060712 34 149 0.0 4.0 0.00 0.59 0.00 95 1019.4
20260502060209 35 169 0.0 4.0 0.00 0.60 0.00 95 1019.3
20260502055713 35 226 0.0 4.0 0.00 0.61 0.00 95 1019.2
20260502055212 35 172 0.0 2.0 0.00 0.62 0.00 95 1019.3
20260502054712 35 153 0.0 0.0 0.00 0.62 0.00 95 1019.3
20260502054212 35 170 0.0 2.0 0.00 0.62 0.00 95 1019.3
20260502053709 35 172 0.0 4.0 0.00 0.62 0.00 95 1019.3
20260502053209 35 155 0.0 3.0 0.00 0.62 0.00 95 1019.2
20260502052709 35 163 0.0 2.0 0.00 0.62 0.00 95 1019.2
20260502052213 35 194 0.0 8.0 0.00 0.62 0.00 95 1019.3
20260502051712 35 186 0.0 0.0 0.00 0.62 0.00 95 1019.3
20260502051212 35 184 0.0 0.0 0.00 0.62 0.00 95 1019.3
20260502050710 35 200 0.0 1.0 0.00 0.62 0.00 95 1019.4
20260502050212 35 176 0.0 3.0 0.00 0.62 0.00 95 1019.4
20260502045713 36 185 0.0 1.0 0.00 0.62 0.00 95 1019.5
20260502045209 36 253 0.0 0.0 0.00 0.62 0.00 95 1019.6
20260502044709 36 193 0.0 0.0 0.00 0.62 0.00 95 1019.5
20260502044209 36 180 0.0 0.0 0.00 0.62 0.00 95 1019.5
20260502043713 36 181 0.0 0.0 0.00 0.62 0.00 94 1019.7
20260502043212 36 179 0.0 0.0 0.00 0.62 0.00 94 1019.6
20260502042712 36 180 0.0 0.0 0.00 0.62 0.00 94 1019.8
20260502042213 36 181 0.0 0.0 0.00 0.62 0.00 94 1019.9
20260502041712 36 181 0.0 0.0 0.00 0.62 0.00 94 1019.8
20260502041212 36 181 0.0 0.0 0.00 0.62 0.00 94 1019.8
20260502040712 37 180 0.0 0.0 0.00 0.62 0.00 94 1019.7
20260502040212 37 205 0.0 0.0 0.00 0.62 0.00 93 1019.8
20260502035712 37 174 0.0 0.0 0.00 0.62 0.00 93 1019.9
20260502035209 37 200 0.0 0.0 0.00 0.62 0.00 93 1019.9
20260502034712 37 276 0.0 0.0 0.00 0.62 0.00 93 1019.9
20260502034212 37 221 0.0 0.0 0.00 0.62 0.00 93 1019.9
20260502033712 37 232 0.0 0.0 0.00 0.62 0.00 94 1019.8
20260502033212 37 253 0.0 0.0 0.00 0.62 0.00 94 1019.8
20260502032712 37 250 0.0 0.0 0.00 0.62 0.00 94 1019.8
20260502032213 37 238 0.0 0.0 0.00 0.62 0.00 94 1019.7
20260502031709 37 243 0.0 0.0 0.00 0.62 0.00 94 1019.7
20260502031212 37 243 0.0 1.0 0.00 0.62 0.00 94 1019.7
20260502030713 37 239 0.0 0.0 0.00 0.62 0.00 94 1019.6
20260502030209 37 246 0.0 0.0 0.00 0.62 0.00 94 1019.5
20260502025709 37 243 0.0 3.0 0.00 0.62 0.00 94 1019.5
20260502025213 37 250 0.0 1.0 0.00 0.62 0.00 95 1019.5
20260502024712 36 256 0.0 1.0 0.00 0.62 0.00 95 1019.3
20260502024209 36 224 0.0 2.0 0.00 0.62 0.00 95 1019.2
20260502023709 36 250 0.0 0.0 0.00 0.62 0.00 95 1019.1
20260502023209 36 259 0.0 0.0 0.00 0.62 0.00 95 1018.9
20260502022709 36 224 0.0 0.0 0.01 0.62 0.00 94 1018.7
20260502022212 36 258 0.0 0.0 0.01 0.62 0.00 94 1018.8
20260502021709 36 249 0.0 0.0 0.01 0.62 0.00 94 1018.7
20260502021209 36 212 0.0 0.0 0.02 0.62 0.00 94 1018.7
20260502020712 36 242 0.0 0.0 0.03 0.62 0.00 94 1018.7
20260502020209 36 231 0.0 0.0 0.04 0.62 0.00 94 1018.6
20260502015709 36 253 0.0 0.0 0.05 0.62 0.00 94 1018.6
20260502015212 36 271 0.0 0.0 0.07 0.62 0.00 94 1018.7
20260502014709 36 219 0.0 0.0 0.09 0.62 0.00 93 1018.7
20260502014209 36 239 0.0 0.0 0.09 0.62 0.00 93 1018.7
20260502013712 36 256 0.0 1.0 0.09 0.62 0.00 93 1018.6
20260502013212 36 256 2.0 5.0 0.09 0.62 0.00 93 1018.5
20260502012709 36 203 0.0 0.0 0.08 0.61 0.00 92 1018.4
20260502012212 36 250 0.0 0.0 0.08 0.61 0.00 92 1018.4
20260502011712 36 242 0.0 0.0 0.08 0.61 0.00 92 1018.6
20260502011212 37 242 0.0 3.0 0.07 0.60 0.00 91 1018.5
20260502010709 37 250 0.0 0.0 0.06 0.59 0.00 91 1018.3
20260502010209 38 245 0.0 0.0 0.04 0.57 0.00 91 1018.2
20260502005712 38 207 0.0 0.0 0.04 0.56 0.00 91 1018.2
20260502005209 38 197 0.0 0.0 0.02 0.54 0.00 91 1018.3
20260502004709 38 266 0.0 0.0 0.01 0.53 0.00 91 1018.3
20260502004209 39 256 0.0 0.0 0.00 0.52 0.00 90 1018.2
20260502003709 39 253 0.0 0.0 0.00 0.52 0.00 90 1018.0
20260502003209 39 260 0.0 0.0 0.00 0.52 0.00 90 1017.9
20260502002709 39 264 0.0 0.0 0.00 0.52 0.00 90 1017.8
20260502002212 39 249 0.0 0.0 0.00 0.52 0.00 90 1017.8
20260502001709 39 258 0.0 0.0 0.00 0.52 0.00 90 1017.7
20260502001209 39 187 0.0 0.0 0.00 0.52 0.00 90 1017.5
20260502000712 39 156 0.0 0.0 0.00 0.52 0.00 90 1017.4
20260502000211 39 226 0.0 0.0 0.00 0.52 0.00 89 1017.3
20260501235709 40 149 0.0 0.0 0.00 0.52 0.00 90 1017.2
20260501235212 40 178 0.0 0.0 0.01 0.52 0.00 89 1017.1
20260501234710 40 174 0.0 0.0 0.01 0.52 0.00 88 1017.1
20260501234212 40 180 0.0 0.0 0.03 0.52 0.00 89 1017.2
20260501233712 41 256 0.0 0.0 0.04 0.52 0.00 88 1017.1
20260501233209 41 212 0.0 0.0 0.04 0.52 0.00 86 1017.0
20260501232709 41 203 0.0 0.0 0.05 0.52 0.00 85 1016.9
20260501232212 42 145 0.0 0.0 0.07 0.52 0.00 86 1017.0
20260501231709 42 181 0.0 0.0 0.07 0.52 0.00 84 1016.9
20260501231212 43 145 0.0 0.0 0.07 0.52 0.00 85 1016.9
20260501230709 44 193 0.0 7.0 0.07 0.52 0.00 87 1016.9
20260501230213 43 163 0.0 5.0 0.07 0.52 0.00 90 1016.8
20260501225712 42 139 0.0 0.0 0.07 0.52 0.00 94 1016.7
20260501225209 40 89 0.0 0.0 0.06 0.51 0.00 91 1016.9
20260501224712 39 256 0.0 0.0 0.06 0.51 0.00 90 1016.7
20260501224212 39 256 0.0 3.0 0.04 0.49 0.00 90 1017.0
20260501223709 39 245 0.0 8.0 0.04 0.48 0.00 91 1017.0
20260501223212 40 248 0.0 0.0 0.03 0.47 0.00 92 1016.9
20260501222712 40 255 0.0 0.0 0.02 0.46 0.00 92 1016.8
20260501222209 40 240 0.0 0.0 0.02 0.45 0.00 92 1016.7
20260501221709 40 241 0.0 0.0 0.03 0.45 0.00 91 1016.6
20260501221209 39 240 0.0 0.0 0.04 0.45 0.00 91 1016.5
20260501220709 39 240 0.0 0.0 0.05 0.45 0.00 91 1016.5
20260501220212 39 331 0.0 0.0 0.07 0.45 0.00 89 1016.5
20260501215712 39 293 0.0 0.0 0.09 0.45 0.00 90 1016.5
20260501215209 39 262 0.0 0.0 0.11 0.44 0.00 91 1016.5
20260501214712 39 205 0.0 0.0 0.13 0.44 0.00 92 1016.6
20260501214212 39 226 0.0 0.0 0.15 0.44 0.00 92 1016.6
20260501213709 38 5 0.0 0.0 0.16 0.44 0.00 93 1016.6
20260501213212 38 316 0.0 0.0 0.17 0.44 0.00 94 1016.6
20260501212712 37 348 0.0 0.0 0.19 0.44 0.00 93 1016.7
20260501212213 37 300 0.0 0.0 0.19 0.43 0.00 92 1016.8
20260501211709 37 240 0.0 0.0 0.19 0.42 0.00 92 1016.8
20260501211212 36 335 0.0 0.0 0.19 0.42 0.00 92 1016.9
20260501210712 36 245 0.0 0.0 0.19 0.39 0.00 92 1017.0
20260501210212 36 298 0.0 0.0 0.19 0.37 0.00 92 1017.1
20260501205712 36 262 0.0 0.0 0.20 0.35 0.00 93 1017.2
20260501205209 36 229 0.0 0.0 0.19 0.32 0.00 93 1017.1
20260501204709 36 208 0.0 0.0 0.20 0.31 0.00 93 1017.2
20260501204209 36 245 0.0 0.0 0.19 0.29 0.00 92 1017.2
20260501203709 36 276 0.0 0.0 0.19 0.28 0.00 93 1017.2
20260501203209 36 258 0.0 0.0 0.19 0.27 0.00 92 1017.3
20260501202712 36 274 0.0 0.0 0.18 0.25 0.00 92 1017.2
20260501202212 35 232 0.0 1.0 0.17 0.24 0.00 92 1017.2
20260501201712 35 245 0.0 0.0 0.16 0.23 0.00 92 1017.2
20260501201209 35 240 0.0 1.0 0.14 0.21 0.00 92 1017.2
20260501200712 35 222 0.0 0.0 0.12 0.19 0.00 92 1017.1
20260501200209 35 15 0.0 5.0 0.10 0.17 0.00 91 1017.1
20260501195712 35 269 0.0 2.0 0.08 0.15 0.00 90 1017.1
20260501195212 35 263 0.0 0.0 0.06 0.13 0.00 89 1017.1
20260501194709 36 229 0.0 2.0 0.04 0.11 0.00 88 1017.1
20260501194212 37 199 0.0 3.0 0.04 0.10 0.00 86 1017.0
20260501193709 38 322 0.0 6.0 0.02 0.08 0.00 83 1016.9
20260501193209 40 356 0.0 9.0 0.01 0.07 0.00 82 1016.8
20260501192712 41 335 3.0 7.0 0.00 0.06 0.00 80 1016.8
20260501192212 41 330 0.0 0.0 0.00 0.06 0.00 81 1016.9
20260501191709 42 345 0.0 0.0 0.00 0.06 0.00 80 1016.9
20260501191212 42 355 0.0 1.0 0.00 0.06 0.00 78 1017.0
20260501190709 43 44 0.0 0.0 0.00 0.06 0.00 77 1017.0
20260501190209 43 71 0.0 4.0 0.00 0.06 0.00 77 1016.9
20260501185712 43 110 0.0 0.0 0.00 0.06 0.00 78 1016.9
20260501185209 43 150 0.0 3.0 0.00 0.06 0.00 77 1016.9
20260501184709 43 163 0.0 4.0 0.00 0.06 0.00 78 1016.8
20260501184209 44 150 0.0 4.0 0.00 0.06 0.00 77 1016.9
20260501183712 44 183 2.0 4.0 0.00 0.06 0.00 77 1016.8
20260501183212 44 174 0.0 8.0 0.01 0.06 0.00 75 1016.7
20260501182709 44 186 0.0 6.0 0.01 0.06 0.00 74 1016.6
20260501182209 45 169 8.0 12.0 0.01 0.06 0.00 73 1016.6
20260501181709 46 131 3.0 11.0 0.01 0.06 0.00 72 1016.6
20260501181212 47 155 0.0 5.0 0.01 0.06 0.00 75 1016.5
20260501180709 46 163 0.0 7.0 0.01 0.06 0.00 75 1016.5
20260501180209 46 162 0.0 8.0 0.01 0.06 0.00 75 1016.5
20260501175709 45 127 0.0 0.0 0.01 0.06 0.00 78 1016.5
20260501175209 45 136 0.0 7.0 0.01 0.06 0.00 78 1016.5
20260501174709 45 176 0.0 4.0 0.01 0.06 0.00 80 1016.5
20260501174212 45 153 0.0 5.0 0.01 0.06 0.00 77 1016.6
20260501173712 45 148 0.0 0.0 0.01 0.06 0.00 76 1016.6
20260501173212 46 261 0.0 3.0 0.00 0.05 0.00 72 1016.6
20260501172712 47 76 0.0 8.0 0.00 0.05 0.00 66 1016.6
20260501172212 48 163 0.0 4.0 0.00 0.05 0.00 62 1016.5